CW4859 Weather Reports


time (UTC)temp
C
wind
direction
speed
KPH
gust
KPH
rain 1hr
cm
rain 24hr
cm
rain mn
cm
humidity
%
barometer
mb
20260510190431 26 286 11.3 14.5 0.00 0.28 0.00 47 1010.3
20260510185930 26 274 11.3 22.5 0.00 0.28 0.00 48 1010.2
20260510185431 26 238 11.3 20.9 0.00 0.28 0.00 47 1010.2
20260510184933 26 187 11.3 12.9 0.00 0.28 0.00 46 1010.2
20260510184430 26 223 6.4 14.5 0.00 0.28 0.00 48 1010.3
20260510183933 26 291 16.1 16.1 0.00 0.28 0.00 48 1010.3
20260510183430 26 297 8.0 17.7 0.00 0.28 0.00 47 1010.3
20260510182930 26 304 6.4 19.3 0.00 0.28 0.00 49 1010.3
20260510182431 26 211 3.2 16.1 0.00 0.28 0.00 52 1010.3
20260510181930 26 338 11.3 14.5 0.00 0.28 0.00 50 1010.3
20260510181430 26 184 6.4 14.5 0.00 0.28 0.00 51 1010.3
20260510180930 26 238 3.2 11.3 0.00 0.28 0.00 52 1010.3
20260510180431 26 270 6.4 12.9 0.00 0.28 0.00 51 1010.3
20260510175930 25 296 12.9 20.9 0.00 0.28 0.00 54 1010.3
20260510175430 25 297 9.7 16.1 0.00 0.28 0.00 53 1010.3
20260510174930 25 271 6.4 11.3 0.00 0.28 0.00 54 1010.3
20260510174430 25 252 8.0 9.7 0.00 0.28 0.00 55 1010.3
20260510173930 25 172 4.8 9.7 0.00 0.28 0.00 57 1010.3
20260510173430 25 165 4.8 12.9 0.00 0.28 0.00 55 1010.3
20260510172930 25 323 8.0 12.9 0.00 0.28 0.00 56 1010.3
20260510172430 25 303 1.6 6.4 0.00 0.28 0.00 57 1010.3
20260510171930 25 166 4.8 9.7 0.00 0.28 0.00 57 1010.3
20260510171430 25 222 4.8 6.4 0.00 0.28 0.00 59 1010.3
20260510170930 25 185 3.2 8.0 0.00 0.28 0.00 58 1010.3
20260510170430 25 305 1.6 9.7 0.00 0.28 0.00 63 1010.3
20260510165930 24 177 3.2 9.7 0.00 0.28 0.00 61 1010.5
20260510165430 24 169 6.4 11.3 0.00 0.28 0.00 61 1010.5
20260510164933 24 188 6.4 12.9 0.00 0.28 0.00 63 1010.5
20260510164430 23 257 3.2 6.4 0.00 0.28 0.00 64 1010.6
20260510163930 23 279 1.6 14.5 0.00 0.28 0.00 61 1010.6
20260510163430 23 159 8.0 8.0 0.00 0.28 0.00 66 1010.6
20260510162930 23 263 4.8 11.3 0.00 0.28 0.00 64 1010.6
20260510162430 22 246 8.0 11.3 0.00 0.28 0.00 66 1010.6
20260510161930 22 202 3.2 4.8 0.00 0.28 0.00 70 1010.6
20260510161430 22 24 3.2 6.4 0.00 0.28 0.00 69 1010.8
20260510160930 22 46 1.6 9.7 0.00 0.28 0.00 69 1010.8
20260510160430 21 338 9.7 12.9 0.00 0.28 0.00 69 1010.8
20260510155930 21 286 12.9 12.9 0.00 0.28 0.00 71 1011.0
20260510155430 21 239 4.8 8.0 0.00 0.28 0.00 71 1011.0
20260510154930 21 235 1.6 6.4 0.00 0.28 0.00 73 1011.0
20260510154430 21 183 3.2 6.4 0.00 0.28 0.00 74 1010.9
20260510153930 20 309 4.8 6.4 0.00 0.28 0.00 76 1010.9
20260510153430 20 185 1.6 4.8 0.00 0.28 0.00 77 1010.9
20260510152930 20 223 3.2 4.8 0.00 0.28 0.00 82 1011.2
20260510152430 19 157 3.2 4.8 0.00 0.28 0.00 82 1011.2
20260510151933 18 161 1.6 6.4 0.00 0.28 0.00 83 1011.2
20260510151430 18 229 1.6 3.2 0.00 0.28 0.00 87 1011.1
20260510150930 17 196 1.6 3.2 0.00 0.28 0.00 88 1011.1
20260510150430 17 292 0.0 6.4 0.00 0.28 0.00 89 1011.1
20260510145930 17 205 3.2 6.4 0.00 0.28 0.00 91 1011.0
20260510145430 16 329 4.8 8.0 0.00 0.28 0.00 91 1011.0
20260510144930 16 302 1.6 6.4 0.00 0.28 0.00 92 1011.0
20260510144430 16 319 4.8 6.4 0.00 0.28 0.00 92 1011.3
20260510143930 16 321 3.2 4.8 0.00 0.28 0.00 93 1011.3
20260510143430 15 53 0.0 3.2 0.00 0.28 0.00 93 1011.3
20260510142930 15 121 3.2 4.8 0.00 0.28 0.00 94 1011.1
20260510142433 15 202 0.0 0.0 0.00 0.28 0.00 94 1011.1
20260510141930 15 36 0.0 0.0 0.00 0.28 0.00 95 1011.1
20260510141430 14 36 0.0 4.8 0.00 0.28 0.00 95 1011.3
20260510140930 14 200 0.0 4.8 0.00 0.28 0.00 95 1011.3
20260510140430 13 300 0.0 0.0 0.00 0.28 0.00 95 1011.3
20260510135933 13 295 0.0 3.2 0.00 0.28 0.00 95 1010.9
20260510135430 13 306 0.0 3.2 0.00 0.28 0.00 95 1010.9
20260510134933 13 306 0.0 4.8 0.00 0.28 0.00 96 1010.9
20260510134433 13 348 0.0 0.0 0.00 0.28 0.00 95 1010.9
20260510133933 13 348 0.0 1.6 0.00 0.28 0.00 96 1010.9
20260510133430 13 202 0.0 3.2 0.00 0.28 0.00 96 1010.9
20260510132930 13 202 0.0 3.2 0.00 0.28 0.00 95 1011.3
20260510132433 13 202 0.0 0.0 0.00 0.28 0.00 96 1011.3
20260510131930 13 202 0.0 4.8 0.00 0.28 0.00 96 1011.3
20260510131430 13 157 1.6 4.8 0.00 0.28 0.00 95 1010.9
20260510130930 12 316 0.0 1.6 0.00 0.28 0.00 95 1010.9
20260510130430 12 316 0.0 1.6 0.00 0.28 0.00 96 1010.9
20260510125933 12 316 0.0 3.2 0.00 0.28 0.00 95 1010.8
20260510125430 12 316 1.6 1.6 0.00 0.28 0.00 95 1010.8
20260510124930 12 316 0.0 4.8 0.00 0.28 0.00 95 1010.8
20260510124430 12 316 0.0 0.0 0.00 0.28 0.00 95 1010.4
20260510123930 12 316 0.0 0.0 0.00 0.28 0.00 95 1010.4
20260510123433 12 316 0.0 3.2 0.00 0.28 0.00 95 1010.4
20260510122930 12 316 0.0 1.6 0.00 0.28 0.00 95 1010.6
20260510122430 12 316 0.0 1.6 0.00 0.28 0.00 95 1010.6
20260510121933 12 316 1.6 3.2 0.00 0.28 0.00 95 1010.6
20260510121430 12 316 0.0 4.8 0.00 0.28 0.00 95 1010.6
20260510120930 11 325 0.0 3.2 0.00 0.28 0.00 95 1010.6
20260510120430 11 300 0.0 0.0 0.00 0.28 0.00 95 1010.6
20260510115930 11 298 0.0 1.6 0.00 0.28 0.00 95 1010.3
20260510115430 11 298 1.6 4.8 0.00 0.28 0.00 95 1010.3
20260510114933 11 309 4.8 4.8 0.00 0.28 0.00 95 1010.3
20260510114430 11 331 1.6 4.8 0.00 0.28 0.00 95 1010.3
20260510113930 11 331 3.2 6.4 0.00 0.28 0.00 95 1010.3
20260510113430 11 15 0.0 6.4 0.00 0.28 0.00 95 1010.3
20260510112932 11 331 3.2 6.4 0.00 0.28 0.00 95 1010.2
20260510112430 11 333 4.8 8.0 0.00 0.28 0.00 95 1010.2
20260510111930 11 5 1.6 4.8 0.00 0.28 0.00 95 1010.2
20260510111430 11 23 4.8 6.4 0.00 0.28 0.00 95 1009.9
20260510110932 11 69 4.8 6.4 0.00 0.28 0.00 95 1009.9
20260510110429 11 83 3.2 3.2 0.00 0.28 0.00 95 1009.9
20260510105930 11 10 0.0 4.8 0.00 0.28 0.00 95 1009.8
20260510105432 11 14 1.6 6.4 0.00 0.28 0.00 95 1009.8
20260510104932 11 318 3.2 8.0 0.00 0.28 0.00 95 1009.8
20260510104432 11 337 1.6 9.7 0.00 0.28 0.00 95 1009.6
20260510103930 11 126 1.6 8.0 0.00 0.28 0.00 95 1009.6
20260510103429 11 34 1.6 8.0 0.00 0.28 0.00 95 1009.6
20260510102930 11 36 3.2 6.4 0.00 0.28 0.00 95 1009.5
20260510102432 10 90 0.0 3.2 0.00 0.28 0.00 95 1009.5
20260510101931 10 347 0.0 0.0 0.00 0.28 0.00 95 1009.5
20260510101430 10 347 0.0 0.0 0.00 0.28 0.00 95 1009.5
20260510100929 10 347 0.0 3.2 0.00 0.28 0.00 95 1009.5
20260510100429 10 347 0.0 1.6 0.00 0.28 0.00 94 1009.5
20260510095929 10 347 0.0 3.2 0.00 0.28 0.00 94 1009.6
20260510095429 10 347 0.0 1.6 0.00 0.28 0.00 94 1009.6
20260510094932 10 315 0.0 0.0 0.00 0.28 0.00 94 1009.6
20260510094432 10 315 0.0 0.0 0.00 0.28 0.00 94 1009.4
20260510093929 10 315 0.0 8.0 0.00 0.28 0.00 94 1009.4
20260510093429 10 335 6.4 6.4 0.00 0.28 0.00 94 1009.4
20260510092932 10 320 1.6 9.7 0.00 0.28 0.00 94 1009.6
20260510092429 10 65 0.0 6.4 0.00 0.28 0.00 94 1009.6
20260510091929 10 308 3.2 11.3 0.00 0.28 0.00 94 1009.6
20260510091429 10 53 1.6 12.9 0.00 0.28 0.00 94 1009.5
20260510090929 10 292 8.0 11.3 0.00 0.28 0.00 94 1009.5
20260510090431 10 300 12.9 12.9 0.00 0.28 0.00 94 1009.5
20260510085929 10 328 4.8 16.1 0.00 0.28 0.00 94 1008.8
20260510085432 10 317 4.8 8.0 0.00 0.28 0.00 94 1008.8
20260510084929 10 344 0.0 0.0 0.00 0.28 0.00 93 1008.8
20260510084429 10 344 0.0 0.0 0.00 0.28 0.00 94 1008.8
20260510083929 10 344 0.0 0.0 0.00 0.28 0.00 94 1008.8
20260510083429 10 344 0.0 0.0 0.00 0.28 0.00 93 1008.8
20260510082929 10 344 0.0 3.2 0.00 0.28 0.00 93 1008.8
20260510082429 10 344 1.6 3.2 0.00 0.28 0.00 93 1008.8
20260510081929 10 344 0.0 0.0 0.00 0.28 0.00 93 1008.8
20260510081429 10 344 0.0 0.0 0.00 0.28 0.00 93 1008.8
20260510080929 10 344 0.0 0.0 0.00 0.28 0.00 93 1008.8
20260510080429 10 344 0.0 0.0 0.00 0.28 0.00 93 1008.8
20260510075929 10 344 0.0 3.2 0.00 0.28 0.00 93 1008.8
20260510075429 10 344 0.0 0.0 0.00 0.28 0.00 93 1008.8
20260510074929 10 344 0.0 1.6 0.00 0.28 0.00 93 1008.8
20260510074432 10 344 1.6 4.8 0.00 0.28 0.00 93 1008.8
20260510073929 10 344 3.2 4.8 0.00 0.28 0.00 93 1008.8
20260510073429 10 355 0.0 1.6 0.00 0.28 0.00 93 1008.8
20260510072929 10 355 1.6 3.2 0.00 0.28 0.00 93 1008.7
20260510072429 10 355 0.0 4.8 0.00 0.28 0.00 93 1008.7
20260510071929 10 355 0.0 1.6 0.00 0.28 0.00 93 1008.7
20260510071429 10 355 1.6 6.4 0.00 0.28 0.00 93 1008.3
20260510070929 10 311 3.2 6.4 0.00 0.28 0.00 93 1008.3
20260510070429 10 350 4.8 4.8 0.00 0.28 0.00 92 1008.3
20260510065929 10 350 0.0 0.0 0.00 0.28 0.00 92 1008.3
20260510065429 10 350 0.0 3.2 0.00 0.28 0.00 93 1008.3
20260510064929 10 350 0.0 0.0 0.00 0.28 0.00 93 1008.3
20260510064429 10 350 0.0 0.0 0.00 0.28 0.00 93 1008.3
20260510063929 10 350 0.0 0.0 0.00 0.28 0.00 92 1008.3
20260510063429 10 350 0.0 3.2 0.00 0.28 0.00 92 1008.3
20260510062929 10 350 1.6 3.2 0.00 0.28 0.00 92 1008.3
20260510062429 10 350 0.0 1.6 0.00 0.28 0.00 92 1008.3
20260510061929 10 350 0.0 0.0 0.00 0.28 0.00 92 1008.3
20260510061432 10 350 0.0 0.0 0.00 0.28 0.00 92 1008.5
20260510060929 10 350 0.0 0.0 0.00 0.28 0.00 92 1008.5
20260510060429 10 350 0.0 0.0 0.00 0.28 0.00 92 1008.5
20260510055929 10 350 0.0 0.0 0.00 0.28 0.00 92 1008.7
20260510055429 10 350 0.0 0.0 0.00 0.28 0.00 92 1008.7
20260510054929 10 350 0.0 0.0 0.00 0.28 0.00 92 1008.7
20260510054432 10 350 0.0 0.0 0.00 0.28 0.00 92 1008.8
20260510053929 10 350 0.0 0.0 0.00 0.28 0.00 92 1008.8
20260510053432 10 350 0.0 0.0 0.00 0.28 0.00 92 1008.8
20260510052929 10 350 0.0 0.0 0.00 0.28 0.00 92 1008.7
20260510052429 10 350 0.0 0.0 0.00 0.28 0.00 92 1008.7
20260510051929 10 350 0.0 0.0 0.00 0.28 0.00 92 1008.7
20260510051429 11 350 0.0 0.0 0.00 0.28 0.00 92 1008.8
20260510050929 11 350 0.0 0.0 0.00 0.28 0.00 92 1008.8
20260510050429 11 350 0.0 0.0 0.00 0.28 0.00 92 1008.8
20260510045929 11 350 0.0 0.0 0.00 0.28 0.00 92 1008.8
20260510045429 11 350 0.0 0.0 0.00 0.28 0.00 92 1008.8
20260510044929 11 350 0.0 0.0 0.00 0.28 0.00 92 1008.8
20260510044429 11 350 0.0 0.0 0.00 0.28 0.00 92 1008.9
20260510043932 11 350 0.0 0.0 0.00 0.28 0.00 92 1008.9
20260510043429 11 350 0.0 0.0 0.00 0.28 0.00 91 1008.9
20260510042929 11 350 0.0 0.0 0.00 0.28 0.00 91 1008.9
20260510042429 11 350 0.0 0.0 0.00 0.28 0.00 91 1008.9
20260510041929 11 350 0.0 0.0 0.00 0.28 0.00 91 1008.9
20260510041429 11 350 0.0 0.0 0.00 0.28 0.00 92 1008.8
20260510040929 11 350 0.0 0.0 0.00 0.28 0.00 91 1008.8
20260510040429 11 350 0.0 0.0 0.00 0.28 0.00 91 1008.8
20260510035932 11 350 0.0 1.6 0.00 0.28 0.00 91 1008.8
20260510035429 11 350 1.6 3.2 0.00 0.28 0.00 91 1008.8
20260510034929 11 350 0.0 0.0 0.00 0.28 0.00 91 1008.8
20260510034429 11 350 0.0 0.0 0.00 0.28 0.00 91 1008.6
20260510033929 11 350 0.0 0.0 0.00 0.28 0.00 90 1008.6
20260510033432 11 350 0.0 0.0 0.00 0.28 0.00 90 1008.6
20260510032929 11 350 0.0 0.0 0.00 0.28 0.00 90 1008.5
20260510032429 11 350 0.0 0.0 0.00 0.28 0.00 90 1008.5
20260510031929 11 350 0.0 0.0 0.00 0.28 0.00 90 1008.5
20260510031429 11 350 0.0 0.0 0.00 0.28 0.00 90 1008.6
20260510030929 11 350 0.0 0.0 0.00 0.28 0.00 90 1008.6
20260510030432 11 350 0.0 0.0 0.00 0.28 0.00 90 1008.6
20260510025929 11 350 0.0 0.0 0.00 0.28 0.00 89 1008.5
20260510025429 11 350 0.0 0.0 0.00 0.28 0.00 90 1008.5
20260510024929 11 350 0.0 0.0 0.00 0.28 0.00 90 1008.5
20260510024429 11 350 0.0 0.0 0.00 0.28 0.00 90 1008.5
20260510023931 11 350 0.0 0.0 0.00 0.28 0.00 89 1008.5
20260510023431 12 350 0.0 0.0 0.00 0.28 0.00 89 1008.5
20260510022928 12 350 0.0 0.0 0.00 0.28 0.00 89 1008.3
20260510022429 12 350 0.0 0.0 0.00 0.28 0.00 89 1008.3
20260510021929 12 350 0.0 0.0 0.00 0.28 0.00 89 1008.3
20260510021429 12 350 0.0 0.0 0.00 0.28 0.00 89 1008.3
20260510020929 12 350 0.0 0.0 0.00 0.28 0.00 89 1008.3
20260510020428 12 350 0.0 0.0 0.00 0.28 0.00 89 1008.3
20260510015929 12 350 0.0 0.0 0.00 0.28 0.00 89 1008.4
20260510015429 12 350 0.0 0.0 0.00 0.28 0.00 89 1008.4
20260510014929 12 350 0.0 0.0 0.00 0.28 0.00 89 1008.4
20260510014428 12 350 0.0 0.0 0.00 0.28 0.00 89 1008.5
20260510013929 12 350 0.0 0.0 0.00 0.28 0.00 89 1008.5
20260510013429 12 350 0.0 0.0 0.00 0.28 0.00 89 1008.5
20260510012928 12 350 0.0 0.0 0.00 0.28 0.00 89 1008.3
20260510012428 12 350 0.0 0.0 0.00 0.28 0.00 89 1008.3
20260510011929 12 350 0.0 0.0 0.00 0.28 0.00 89 1008.3
20260510011428 12 350 0.0 0.0 0.00 0.28 0.00 89 1008.2
20260510010928 13 350 0.0 0.0 0.00 0.28 0.00 89 1008.2
20260510010428 13 350 0.0 0.0 0.00 0.28 0.00 89 1008.2
20260510005928 13 350 0.0 0.0 0.00 0.28 0.00 88 1008.1
20260510005428 13 350 0.0 0.0 0.00 0.28 0.00 88 1008.1
20260510004928 13 350 0.0 0.0 0.00 0.28 0.00 88 1008.1
20260510004431 13 350 0.0 0.0 0.00 0.28 0.00 88 1007.9
20260510003928 13 350 0.0 0.0 0.00 0.28 0.00 88 1007.9
20260510003429 13 350 0.0 0.0 0.00 0.28 0.00 88 1007.9
20260510002928 13 350 0.0 0.0 0.00 0.28 0.00 88 1007.8
20260510002428 13 350 0.0 0.0 0.00 0.28 0.00 88 1007.8
20260510001928 13 350 0.0 0.0 0.00 0.28 0.00 88 1007.8
20260510001428 13 350 0.0 0.0 0.00 0.28 0.00 88 1007.8
20260510000928 13 350 0.0 0.0 0.00 0.28 0.00 88 1007.8
20260510000428 14 350 0.0 0.0 0.00 0.28 0.00 89 1007.8
20260509235928 14 350 0.0 0.0 0.00 0.28 0.00 89 1008.0
20260509235428 14 350 0.0 0.0 0.00 0.28 0.00 89 1008.0
20260509234928 14 350 0.0 0.0 0.00 0.28 0.00 88 1008.0
20260509234428 14 350 0.0 4.8 0.00 0.28 0.00 88 1007.7
20260509233930 14 350 0.0 4.8 0.00 0.28 0.00 88 1007.7
20260509233428 14 350 3.2 4.8 0.00 0.28 0.00 88 1007.7
20260509232931 14 5 0.0 6.4 0.00 0.28 0.00 88 1007.7
20260509232431 14 13 1.6 4.8 0.00 0.28 0.00 88 1007.7
20260509231928 14 45 0.0 6.4 0.00 0.28 0.00 88 1007.7
20260509231428 14 30 1.6 4.8 0.00 0.28 0.00 88 1007.7
20260509230928 14 67 0.0 8.0 0.00 0.28 0.00 88 1007.7
20260509230428 14 86 1.6 6.4 0.00 0.28 0.00 88 1007.7
20260509225928 14 44 1.6 4.8 0.00 0.28 0.00 88 1007.7
20260509225428 14 80 0.0 4.8 0.00 0.28 0.00 88 1007.7
20260509224928 14 52 1.6 8.0 0.00 0.28 0.00 87 1007.7
20260509224428 14 146 4.8 8.0 0.00 0.28 0.00 87 1007.8
20260509223928 14 109 1.6 9.7 0.08 0.28 0.00 87 1007.8
20260509223428 15 96 1.6 8.0 0.18 0.28 0.00 86 1007.8
20260509222928 15 73 4.8 9.7 0.28 0.28 0.00 85 1008.1
20260509222428 15 80 0.0 6.4 0.28 0.28 0.00 85 1008.1
20260509221928 15 9 1.6 4.8 0.28 0.28 0.00 85 1008.1
20260509221428 15 36 0.0 6.4 0.28 0.28 0.00 85 1008.3
20260509220928 15 60 3.2 4.8 0.28 0.28 0.00 84 1008.3
20260509220431 15 49 4.8 6.4 0.28 0.28 0.00 84 1008.3
20260509215931 15 40 0.0 3.2 0.28 0.28 0.00 84 1008.4
20260509215431 15 61 1.6 4.8 0.28 0.28 0.00 82 1008.4
20260509214928 15 341 1.6 4.8 0.28 0.28 0.00 81 1008.4
20260509214428 15 42 0.0 6.4 0.28 0.28 0.00 81 1008.3
20260509213928 16 288 1.6 1.6 0.18 0.18 0.00 79 1008.3
20260509213428 16 28 0.0 6.4 0.08 0.08 0.00 78 1008.3
20260509212928 16 340 1.6 9.7 0.00 0.00 0.00 75 1008.4
20260509212428 16 302 6.4 6.4 0.00 0.00 0.00 75 1008.4
20260509211928 16 277 1.6 8.0 0.00 0.00 0.00 74 1008.4
20260509211428 16 329 6.4 9.7 0.00 0.00 0.00 74 1008.2
20260509210928 16 313 4.8 8.0 0.00 0.00 0.00 73 1008.2
20260509210431 16 317 4.8 8.0 0.00 0.00 0.00 74 1008.2
20260509205928 16 5 3.2 8.0 0.00 0.00 0.00 74 1007.8
20260509205428 16 34 6.4 12.9 0.00 0.00 0.00 74 1007.8
20260509204928 16 5 9.7 11.3 0.00 0.00 0.00 74 1007.8
20260509204428 16 35 4.8 6.4 0.00 0.00 0.00 73 1007.9
20260509203928 16 351 1.6 14.5 0.00 0.00 0.00 73 1007.9
20260509203428 16 324 3.2 11.3 0.00 0.00 0.00 74 1007.9
20260509202928 16 333 11.3 14.5 0.00 0.00 0.00 75 1008.1
20260509202428 16 341 4.8 12.9 0.00 0.00 0.00 75 1008.1
20260509201928 16 21 8.0 12.9 0.00 0.00 0.00 75 1008.1
20260509201428 16 335 8.0 14.5 0.00 0.00 0.00 76 1008.0
20260509200928 16 40 3.2 16.1 0.00 0.00 0.00 75 1008.0
20260509195928 16 355 12.9 20.9 0.00 0.00 0.00 74 1008.1
20260509195428 16 327 8.0 17.7 0.00 0.00 0.00 75 1008.1
20260509194928 16 295 11.3 19.3 0.00 0.00 0.00 74 1008.1
20260509194428 16 299 11.3 16.1 0.00 0.00 0.00 75 1008.2
20260509193928 16 330 16.1 16.1 0.00 0.00 0.00 74 1008.2
20260509193431 16 308 9.7 14.5 0.00 0.00 0.00 73 1008.2
20260509192928 16 325 8.0 20.9 0.00 0.00 0.00 73 1008.3
20260509192428 16 296 8.0 17.7 0.00 0.00 0.00 72 1008.3
20260509191928 17 308 16.1 19.3 0.00 0.00 0.00 72 1008.3
20260509191428 17 310 9.7 16.1 0.00 0.00 0.00 71 1008.4
20260509190928 17 297 8.0 16.1 0.00 0.00 0.00 72 1008.4